Home   Weather   Gurgaon   Past weeks

Flag for India Past Weather in Gurgaon, Haryana, India — Yesterday and Last 2 Weeks

86 °F


Feels Like: 85 °F
Forecast: 70 / 90 °F
Wind: 12 mph from West

Location: New Delhi Palam Airport

Current Time: Oct 22, 2016 at 10:48:42 AM

Latest Report: Oct 22, 2016 at 10:30 AM

Visibility: 2 mi

Pressure: 29.89 "Hg

Humidity: 40%

Dew Point: 59 °F

Location of GurgaonLocation

Past Weather in Gurgaon — Graph


Gurgaon Temperature Yesterday

Maximum temperature yesterday: 93 °F (at 2:00 PM)
Minimum temperature yesterday: 70 °F (at 5:30 AM)
Average temperature yesterday: 81 °F

High & Low Weather Summary for the Past Weeks

High97 °F (Oct 9, 1:30 PM)89% (Oct 8, 4:00 AM)29.95 "Hg (Oct 8, 4:00 AM)
Low64 °F (Oct 16, 6:00 AM)19% (Oct 17, 4:00 PM)29.65 "Hg (Oct 9, 4:30 PM)
Average82 °F48%29.80 "Hg
* Reported Oct 7 9:30 AM — Oct 22 9:30 AM, Gurgaon, Weather by CustomWeather, © 2016

Note: Actual official high and low records may vary slightly from our data, if they occured in-between our weather recording intervals... More about our weather records


Gurgaon Weather History for the Previous 24 Hours

Scroll right to see more
Time TempWeatherWind HumidityBarometerVisibility
9:30 AM
Sat, Oct 22
82 °FHaze.12 mph42%29.89 "Hg2 mi
9:00 AM79 °FHaze.9 mph45%29.89 "Hg2 mi
8:30 AM75 °FHaze.7 mph50%29.89 "Hg2 mi
8:00 AM73 °FHaze.6 mph53%29.89 "Hg2 mi
7:30 AM72 °FClear.5 mph57%29.86 "Hg2 mi
7:00 AM70 °FClear.5 mph57%29.86 "Hg2 mi
6:30 AM70 °FClear.5 mph57%29.83 "Hg1 mi
5:30 AM72 °FClear.3 mph50%29.83 "Hg2 mi
5:00 AM72 °FClear.3 mph50%29.80 "Hg2 mi
4:30 AM72 °FClear.3 mph53%29.80 "Hg2 mi
4:00 AM72 °FClear.No wind53%29.80 "Hg2 mi
3:30 AM72 °FClear.No wind65%29.80 "Hg1 mi
3:00 AM72 °FClear.No wind65%29.80 "Hg1 mi
2:30 AM72 °FClear.No wind65%29.80 "Hg1 mi
2:00 AM72 °FClear.No wind65%29.80 "Hg1 mi
1:30 AM72 °FClear.No wind65%29.80 "Hg1 mi
1:00 AM75 °FClear.No wind50%29.80 "Hg1 mi
12:30 AM77 °FHaze.No wind47%29.83 "Hg1 mi
12:00 AM77 °FHaze.No wind47%29.83 "Hg2 mi
11:30 PM
Fri, Oct 21
77 °FHaze.No wind47%29.83 "Hg2 mi
11:00 PM81 °FHaze.No wind39%29.83 "Hg2 mi
10:30 PM81 °FHaze.No wind39%29.83 "Hg2 mi
10:00 PM79 °FHaze.No wind45%29.83 "Hg2 mi
9:30 PM82 °FHaze.No wind40%29.83 "Hg2 mi
9:00 PM82 °FHaze.No wind40%29.83 "Hg2 mi
8:30 PM84 °FHaze.No wind37%29.83 "Hg2 mi
8:00 PM84 °FHaze.No wind37%29.80 "Hg2 mi
7:30 PM84 °FHaze.3 mph35%29.80 "Hg2 mi
7:00 PM86 °FHaze.5 mph33%29.80 "Hg2 mi
6:30 PM88 °FHaze.3 mph29%29.77 "Hg3 mi
6:00 PM90 °FHaze.6 mph27%29.77 "Hg3 mi
5:30 PM90 °FClear.7 mph26%29.77 "Hg4 mi
5:00 PM91 °FClear.9 mph24%29.77 "Hg4 mi
4:30 PM93 °FHaze.10 mph24%29.77 "Hg4 mi
4:00 PM93 °FClear.10 mph24%29.77 "Hg4 mi
3:30 PM93 °FClear.10 mph24%29.77 "Hg4 mi
3:00 PM93 °FClear.10 mph24%29.77 "Hg4 mi
2:30 PM93 °FHaze.12 mph24%29.77 "Hg3 mi
2:00 PM93 °FHaze.12 mph26%29.80 "Hg3 mi
1:30 PM91 °FHaze.9 mph28%29.80 "Hg3 mi
12:30 PM91 °FHaze.9 mph28%29.83 "Hg3 mi
12:00 PM91 °FHaze.9 mph28%29.86 "Hg3 mi
11:30 AM90 °FHaze.9 mph29%29.86 "Hg3 mi
11:00 AM88 °FHaze.9 mph31%29.86 "Hg3 mi
10:30 AM86 °FHaze.9 mph33%29.86 "Hg2 mi
10:00 AM82 °FClear.9 mph37%29.86 "Hg2 mi
Weather by CustomWeather, © 2016

See weather overviewHow to use our weather pages